Regional Weather Roundup
Issued by NWS

Home | Current Version | Previous Version | Graphics & Text | Print | Product List | Glossary On
Versions: 1 2 3 4 5 6 7 8 9 10 11 12 13 14 15 16 17 18 19 20 21 22 23 24 25 26 27 28 29 30 31 32 33 34 35 36 37 38 39 40 41 42 43 44 45 46 47 48 49 50
323
ASUS44 KJAN 240810
RWRMS

MISSISSIPPI HOURLY WEATHER ROUNDUP
NATIONAL WEATHER SERVICE JACKSON MS
200 AM CST MON NOV 24 2014

NOTE: "FAIR: INDICATES FEW OR NO CLOUDS BELOW 12,000 FEET WITH NO
SIGNIFICANT WEATHER AND/OR OBSTRUCTIONS TO VISIBILITY.

MSZ001>002-007>008-010>013-018>021-025>028-034>036-240900-
NORTHWEST MISSISSIPPI

CITY           SKY/WX    TMP DP  RH WIND       PRES   REMARKS
CLARKSDALE     FAIR      59  54  82 SW20      29.55R
CLEVELAND      FAIR      59  54  82 SW17      29.58R
GREENWOOD      CLEAR     62  55  77 SW14      29.60R
GREENVILLE     CLEAR     61  52  72 SW15      29.58R
GRENADA        FAIR      61  54  77 SW8G17    29.58R
OLIVE BRANCH   PTCLDY    57  57 100 SW20G33   29.48R
OXFORD         FAIR      59  54  82 SW16G26   29.55R
TUNICA         SUNNY     59  52  77 SW18G25   29.52R
$$

MSZ003>006-009-014>017-022>024-029>033-037>039-240900-
NORTHEAST MISSISSIPPI

CITY           SKY/WX    TMP DP  RH WIND       PRES   REMARKS
COLUMBUS AFB   CLEAR     61  58  89 S9        29.62R
CORINTH        FAIR      61  55  82 S12       29.50R
GOLDN TRIANGLE CLEAR     61  57  88 S10       29.62R
STARKVILLE     FAIR      63  57  82 S5        29.62R
TUPELO         CLEAR     58  55  90 MISG      29.56R
$$

MSZ040-058-240900-
CENTRAL MISSISSIPPI

CITY           SKY/WX    TMP DP  RH WIND       PRES   REMARKS
JACKSON INTL   CLEAR     63  59  87 S10       29.68R
JACKSON HAWKNS CLEAR     63  58  83 SW9       29.68R
MERIDIAN KEY   CLEAR     63  60  90 S14       29.69R
MERIDIAN NAS   CLEAR     65  59  81 S6G20     29.68R
RAYMOND        FAIR      63  57  82 SW9       29.67S
VICKSBURG      CLEAR     62  57  83 SW6       29.67R
$$

MSZ059>079-240900-
SOUTH MISSISSIPPI

CITY           SKY/WX    TMP DP  RH WIND       PRES   REMARKS
BROOKHAVEN     FAIR      63  63 100 S8        29.71S
HATTIESBURG    CLEAR     67  63  87 SW8       29.73S
MCCOMB         CLOUDY    65  62  90 S8        29.72R
NATCHEZ        CLEAR     63  59  88 SW6       29.71R
PINE BELT      PTCLDY    66  61  82 S12G17    29.73R
$$

MSZ080>082-240900-
COASTAL MISSISSIPPI

CITY           SKY/WX    TMP DP  RH WIND       PRES   REMARKS
BILOXI         FOG       63  63 100 SW9       29.76S VSB 1/2
PASCAGOULA     CLOUDY    67  66  97 VRB6      29.77R
GULFPORT       FOG       65  65 100 VRB5      29.75S VSB 1/2
$$



USA.gov is the U.S. government's official web portal to all federal, state and local government web resources and services.